Total_Precipitation_Accumulation
0.00 0.00 0.00 0.00 0.00 0.00 0.00 0.00 0.00 0.00 0.00 0.00 0.00 0.00 0.00 0.01 0.02 0.03 0.03 0.00 0.02 0.08 0.42 0.62 0.44 0.23 0.05 0.02 0.01 0.00 0.00 0.00 0.00 0.00 0.00 0.00 0.00 0.01 0.00 0.00 0.00 0.00 0.01 0.01 0.01 0.01 0.01 0.00 0.00
0.00 0.00 0.00 0.00 0.00 0.00 0.00 0.00 0.00 0.00 0.01 0.00 0.00 0.00 0.00 0.00 0.00 0.00 0.02 0.02 0.04 0.08 0.09 0.81 1.57 0.68 0.34 0.14 0.04 0.02 0.00 0.00 0.01 0.00 0.00 0.00 0.00 0.01 0.01 0.02 0.01 0.00 0.01 0.02 0.01 0.01 0.01 0.00 0.00
0.00 0.00 0.00 0.00 0.00 0.00 0.00 0.00 0.00 0.01 0.00 0.00 0.00 0.00 0.00 0.00 0.00 0.00 0.00 0.01 0.10 0.11 0.07 0.16 0.69 1.01 0.77 0.29 0.13 0.07 0.00 0.00 0.01 0.01 0.00 0.00 0.00 0.00 0.01 0.02 0.02 0.01 0.01 0.01 0.01 0.01 0.01 0.00 0.00
0.00 0.00 0.00 0.00 0.00 0.00 0.00 0.00 0.00 0.00 0.00 0.00 0.00 0.00 0.00 0.00 0.00 0.00 0.00 0.00 0.15 0.20 0.27 0.40 0.33 0.64 0.88 0.77 0.71 0.42 0.08 0.01 0.03 0.02 0.00 0.00 0.00 0.00 0.00 0.01 0.01 0.02 0.01 0.01 0.01 0.00 0.00 0.00 0.00
0.00 0.00 0.00 0.00 0.00 0.00 0.00 0.00 0.00 0.00 0.00 0.00 0.00 0.00 0.00 0.00 0.00 0.00 0.00 0.05 0.24 0.47 1.09 0.64 1.11 1.27 1.44 1.16 1.34 1.40 0.92 0.18 0.23 0.13 0.03 0.03 0.00 0.00 0.00 0.00 0.00 0.01 0.01 0.01 0.01 0.00 0.00 0.00 0.00
0.00 0.00 0.00 0.00 0.00 0.00 0.00 0.00 0.00 0.00 0.00 0.00 0.00 0.00 0.00 0.00 0.00 0.01 0.00 0.14 0.39 0.73 1.41 1.21 1.70 3.29 3.17 2.45 2.30 2.17 1.86 1.15 0.51 0.22 0.12 0.14 0.03 0.00 0.01 0.00 0.00 0.00 0.00 0.01 0.00 0.00 0.00 0.00 0.00
0.00 0.00 0.00 0.00 0.00 0.00 0.00 0.00 0.00 0.00 0.00 0.01 0.00 0.00 0.00 0.00 0.01 0.04 0.01 0.12 0.50 0.63 1.26 1.39 1.89 3.86 4.94 5.27 4.21 3.64 3.11 2.92 1.71 0.54 0.16 0.07 0.02 0.01 0.01 0.01 0.00 0.00 0.00 0.00 0.00 0.00 0.00 0.00 0.00
0.00 0.00 0.00 0.00 0.00 0.00 0.00 0.00 0.00 0.00 0.00 0.01 0.00 0.01 0.01 0.01 0.10 0.12 0.03 0.20 0.60 0.34 1.04 1.13 1.73 3.59 3.41 4.03 3.96 3.30 3.92 2.68 2.55 2.00 0.73 0.22 0.01 0.00 0.01 0.02 0.00 0.01 0.01 0.00 0.00 0.00 0.00 0.00 0.00
0.00 0.00 0.00 0.00 0.00 0.00 0.00 0.00 0.00 0.00 0.01 0.01 0.00 0.01 0.04 0.07 0.08 0.08 0.11 0.14 0.31 0.31 0.59 1.09 2.60 3.60 4.30 3.66 2.98 2.41 2.84 4.55 2.22 2.34 1.69 0.57 0.02 0.01 0.01 0.04 0.00 0.01 0.00 0.00 0.00 0.00 0.00 0.00 0.00
0.00 0.00 0.00 0.00 0.00 0.00 0.00 0.00 0.00 0.00 0.00 0.01 0.00 0.02 0.05 0.05 0.04 0.05 0.07 0.20 0.20 0.33 0.92 1.23 1.19 1.22 1.76 2.09 2.07 1.70 2.24 3.82 3.27 2.29 1.52 0.35 0.03 0.03 0.02 0.06 0.02 0.00 0.00 0.00 0.00 0.00 0.00 0.00 0.00
0.00 0.00 0.00 0.00 0.00 0.00 0.00 0.00 0.00 0.00 0.03 0.02 0.00 0.01 0.01 0.02 0.02 0.03 0.03 0.08 0.24 0.35 0.77 0.72 0.24 0.09 0.25 0.48 0.75 1.00 1.98 2.42 2.85 1.87 1.27 0.29 0.10 0.10 0.07 0.07 0.03 0.00 0.00 0.00 0.00 0.00 0.00 0.00 0.00
0.00 0.00 0.00 0.00 0.00 0.00 0.00 0.00 0.00 0.02 0.06 0.01 0.00 0.00 0.00 0.00 0.01 0.01 0.04 0.10 0.29 0.38 0.32 0.32 0.15 0.08 0.03 0.10 0.26 0.48 1.02 2.12 1.74 1.73 1.08 0.48 0.09 0.05 0.06 0.02 0.01 0.00 0.00 0.00 0.00 0.00 0.00 0.00 0.00
0.00 0.00 0.00 0.00 0.00 0.00 0.00 0.00 0.00 0.00 0.00 0.00 0.00 0.00 0.00 0.00 0.02 0.02 0.08 0.10 0.19 0.33 0.27 0.15 0.13 0.09 0.03 0.02 0.05 0.20 0.48 1.78 1.11 1.82 0.96 0.48 0.06 0.03 0.03 0.03 0.02 0.00 0.00 0.00 0.00 0.00 0.00 0.00 0.00
0.00 0.00 0.00 0.00 0.00 0.00 0.00 0.00 0.00 0.00 0.00 0.00 0.00 0.00 0.00 0.02 0.01 0.00 0.03 0.07 0.13 0.25 0.29 0.26 0.16 0.09 0.03 0.01 0.01 0.07 0.36 0.89 0.90 1.45 0.69 0.36 0.06 0.04 0.04 0.05 0.02 0.00 0.00 0.00 0.00 0.00 0.00 0.00 0.00
0.00 0.00 0.00 0.00 0.00 0.00 0.00 0.00 0.00 0.00 0.00 0.00 0.00 0.00 0.00 0.00 0.00 0.00 0.01 0.01 0.04 0.15 0.24 0.34 0.37 0.13 0.07 0.01 0.02 0.03 0.31 0.62 0.54 0.75 0.46 0.21 0.07 0.03 0.03 0.04 0.04 0.00 0.00 0.00 0.00 0.00 0.00 0.00 0.00
0.00 0.00 0.00 0.00 0.00 0.00 0.00 0.00 0.00 0.00 0.00 0.00 0.00 0.00 0.00 0.00 0.00 0.00 0.00 0.00 0.01 0.04 0.19 0.43 0.43 0.36 0.20 0.05 0.04 0.03 0.22 0.49 0.47 0.47 0.29 0.11 0.06 0.04 0.05 0.05 0.02 0.00 0.00 0.00 0.00 0.00 0.00 0.00 0.00
0.00 0.00 0.00 0.00 0.00 0.00 0.00 0.00 0.00 0.00 0.00 0.00 0.00 0.00 0.00 0.00 0.00 0.00 0.00 0.00 0.00 0.00 0.06 0.43 0.57 0.36 0.17 0.07 0.08 0.07 0.13 0.34 0.33 0.30 0.15 0.06 0.04 0.03 0.02 0.07 0.07 0.02 0.03 0.00 0.00 0.00 0.00 0.00 0.00
0.00 0.00 0.00 0.00 0.00 0.00 0.00 0.00 0.00 0.00 0.00 0.00 0.00 0.00 0.00 0.00 0.00 0.00 0.00 0.00 0.00 0.00 0.01 0.15 0.67 0.47 0.25 0.16 0.11 0.23 0.16 0.26 0.24 0.22 0.19 0.06 0.02 0.02 0.02 0.03 0.08 0.08 0.05 0.02 0.00 0.00 0.00 0.00 0.00
0.00 0.00 0.00 0.00 0.00 0.00 0.00 0.00 0.00 0.00 0.00 0.00 0.00 0.00 0.00 0.00 0.00 0.00 0.00 0.00 0.00 0.00 0.01 0.05 0.35 0.53 0.26 0.23 0.16 0.24 0.24 0.19 0.17 0.16 0.15 0.09 0.02 0.03 0.02 0.02 0.07 0.02 0.07 0.06 0.01 0.00 0.00 0.00 0.00
0.00 0.00 0.00 0.00 0.00 0.00 0.00 0.00 0.00 0.00 0.00 0.00 0.00 0.00 0.00 0.00 0.00 0.00 0.00 0.00 0.00 0.00 0.00 0.01 0.17 0.29 0.32 0.27 0.18 0.10 0.16 0.22 0.13 0.11 0.09 0.07 0.03 0.01 0.06 0.08 0.06 0.03 0.07 0.09 0.04 0.02 0.02 0.01 0.00
0.00 0.00 0.00 0.00 0.00 0.00 0.00 0.00 0.00 0.00 0.00 0.00 0.00 0.00 0.00 0.00 0.00 0.00 0.00 0.00 0.00 0.00 0.00 0.01 0.03 0.07 0.12 0.27 0.24 0.21 0.20 0.20 0.26 0.15 0.07 0.03 0.04 0.02 0.02 0.05 0.07 0.09 0.07 0.08 0.07 0.05 0.05 0.03 0.03
0.00 0.00 0.00 0.00 0.00 0.00 0.00 0.00 0.00 0.00 0.00 0.00 0.00 0.00 0.00 0.00 0.00 0.00 0.00 0.00 0.00 0.00 0.00 0.00 0.02 0.02 0.01 0.04 0.08 0.12 0.14 0.08 0.04 0.04 0.04 0.01 0.01 0.07 0.08 0.05 0.03 0.13 0.13 0.11 0.09 0.06 0.06 0.09 0.09
0.00 0.00 0.00 0.00 0.00 0.00 0.00 0.00 0.00 0.00 0.01 0.00 0.00 0.00 0.00 0.00 0.00 0.00 0.00 0.00 0.00 0.00 0.00 0.00 0.01 0.02 0.01 0.01 0.00 0.01 0.03 0.05 0.02 0.02 0.02 0.01 0.01 0.04 0.10 0.09 0.07 0.09 0.17 0.18 0.20 0.19 0.10 0.11 0.21
0.00 0.01 0.00 0.00 0.00 0.00 0.00 0.00 0.00 0.00 0.00 0.00 0.00 0.00 0.00 0.00 0.00 0.00 0.00 0.00 0.00 0.00 0.00 0.00 0.00 0.01 0.01 0.01 0.00 0.00 0.00 0.02 0.03 0.02 0.02 0.01 0.01 0.03 0.10 0.22 0.17 0.13 0.13 0.22 0.21 0.24 0.23 0.19 0.22
0.00 0.03 0.04 0.02 0.00 0.00 0.00 0.00 0.00 0.00 0.00 0.00 0.00 0.00 0.00 0.00 0.00 0.00 0.00 0.00 0.00 0.00 0.00 0.00 0.00 0.00 0.01 0.01 0.00 0.00 0.00 0.00 0.00 0.00 0.01 0.00 0.00 0.04 0.10 0.16 0.13 0.09 0.14 0.18 0.24 0.26 0.26 0.31 0.38
0.00 0.01 0.03 0.03 0.01 0.00 0.00 0.00 0.00 0.00 0.00 0.00 0.00 0.00 0.00 0.00 0.00 0.00 0.00 0.00 0.00 0.00 0.00 0.00 0.00 0.00 0.00 0.01 0.01 0.00 0.00 0.00 0.00 0.00 0.00 0.00 0.01 0.01 0.08 0.11 0.13 0.10 0.10 0.14 0.18 0.17 0.19 0.23 0.28
0.03 0.02 0.00 0.06 0.02 0.01 0.00 0.00 0.00 0.00 0.00 0.00 0.00 0.00 0.00 0.00 0.00 0.00 0.00 0.00 0.00 0.00 0.00 0.00 0.00 0.00 0.00 0.00 0.00 0.00 0.00 0.00 0.00 0.01 0.01 0.00 0.01 0.04 0.04 0.04 0.09 0.12 0.11 0.10 0.09 0.10 0.10 0.11 0.12
0.01 0.01 0.13 0.19 0.04 0.01 0.00 0.00 0.00 0.00 0.00 0.00 0.00 0.00 0.00 0.00 0.00 0.00 0.00 0.00 0.00 0.01 0.03 0.07 0.05 0.03 0.09 0.03 0.00 0.00 0.00 0.03 0.03 0.02 0.03 0.06 0.08 0.09 0.06 0.03 0.02 0.05 0.05 0.04 0.05 0.05 0.07 0.08 0.07
0.00 0.03 0.11 0.06 0.01 0.00 0.01 0.01 0.01 0.00 0.00 0.00 0.00 0.00 0.00 0.00 0.00 0.00 0.00 0.00 0.00 0.02 0.04 0.04 0.09 0.14 0.12 0.11 0.04 0.01 0.00 0.13 0.16 0.11 0.13 0.16 0.22 0.24 0.23 0.18 0.11 0.06 0.08 0.10 0.08 0.05 0.07 0.06 0.06
0.00 0.00 0.02 0.11 0.06 0.00 0.00 0.01 0.00 0.00 0.00 0.00 0.00 0.00 0.00 0.00 0.00 0.00 0.00 0.00 0.00 0.00 0.00 0.00 0.04 0.03 0.04 0.11 0.14 0.12 0.07 0.12 0.27 0.45 0.52 0.51 0.33 0.26 0.24 0.26 0.24 0.20 0.16 0.16 0.14 0.13 0.12 0.12 0.11